Simultaneous Nadir Overpasses (SNOs) Predictions

Prediction of SNOs between GOES-16 and TERRA Satellite Orbit:

Table of predicted SNOs for the next 14.0 days since TLE Epoch: 9/14/2024
Index Date Time (GOES-16) GOES-16 Lat,Lon TERRA Lat,Lon Distance(km) Time Diff (sec)
1 09/14/2024 14:53:27 -0.05, -75.20 0.60, -78.23 344.68 80
2 09/16/2024 14:38:13 -0.05, -75.21 -0.33, -73.92 146.92 80
3 09/17/2024 02:55:29 0.05, -75.21 -0.71, -78.76 404.33 80
4 09/19/2024 02:40:13 0.05, -75.23 0.20, -74.44 88.94 80
5 09/19/2024 14:57:18 -0.05, -75.23 0.79, -79.25 456.27 80
6 09/21/2024 14:42:00 -0.05, -75.25 -0.10, -74.91 38.29 80
7 09/24/2024 02:41:16 0.04, -75.28 0.01, -75.42 16.60 80
8 09/26/2024 02:23:15 0.04, -75.31 0.91, -71.08 480.27 80
9 09/26/2024 14:43:00 -0.04, -75.32 0.08, -75.88 64.05 80
